Terminal Aerodrome Forecast
Issued by NWS Wilmington, OH

Home | Current Version | Previous Version | Text Only | Print | Product List | Glossary On
Versions: 1 2 3 4 5 6 7 8 9 10 11 12 13 14 15 16 17 18 19 20 21 22 23 24 25 26 27 28
432
FTUS41 KILN 011559 AAB
TAFCMH
TAF AMD
KCMH 011559Z 0116/0212 22004KT P6SM BKN015
     FM011700 25006KT P6SM FEW025 BKN035
     FM011900 28006KT P6SM VCSH SCT025 BKN040
     FM012300 VRB03KT P6SM SCT050 BKN080
     FM020400 VRB03KT P6SM VCSH BKN050
      TEMPO 0206/0209 -SHRA
     FM020900 30004KT P6SM VCSH BKN025=

USA.gov is the U.S. government's official web portal to all federal, state and local government web resources and services.